COSMOS 1447

Satellite information

Favourite Embed

Satellite Type and Status

PAYLOADIN ORBIT

Key statistics

Satellite COSMOS 1447 at a glance.

Uptime

15506

Days in orbit

Revolutions

≈ 13.8

Per day

Orbit

LEO

Low Earth Orbit

Inclination

82.9

Latest

Satellite identification and parameters

Extended collection of information and parameters for COSMOS 1447.

Object identification

Identified? True

Debris? False

Object name: COSMOS 1447

International designator: 1983-021A

Object number (NORAD): 13916

Object ID (CCSDS): 13916

Country: COMMONWEALTH OF INDEPENDENT STATES (CIS)

Current information (Y/N): Y

RCS size: LARGE

Orbital parameters

Period: 104.703 minutes

Inclination: 82.9455 deg

SMA: 7358.678 km

Apoapsis: 1007.176 km

Periapsis: 953.911 km

RAAN: 211.3493 deg

Eccentricy: 0.00361923

Argument of periapsis: 269.6935 deg

Mean anomaly: 100.4932 deg

Mean motion: 13.753177 rev/day

Mean motion (dot): 0.00000075 rev/day2

B* drag term: 0.000062559211 1/REarth

Two-line elements (TLE)

Creation date: Sept. 4, 2025, 10:13 a.m.

Reference frame: TEME

Reference center: EARTH

Epoch: Sept. 4, 2025, 3:39 a.m. UTC

TLE line 0: 0 COSMOS 1447

TLE line 1: 1 13916U 83021A 25247.15222662 .00000075 00000-0 62559-4 0 9993

TLE line 2: 2 13916 82.9455 211.3493 0036192 269.6935 100.4932 13.75317700129767

Live tracking on map

Real-time ground track for satellite COSMOS 1447.

In-orbit conjunctions

A list of the most updated potential collisions computed for object COSMOS 1447.

Target Orbit TCA Probability of collision Miss distance Type
FENGYUN 1C DEB SSO 2024-10-17 02:10:39 0.0002003344 458.0 (m) DEBRIS

Associated space launch

Civilian navigation satellite equivalent to the purely military Parus

COSMOS 1447 was lifted into orbit during the mission ‘Kosmos-3M | Nadezhda 2’, on board a Kosmos-3M space rocket.

The launch took place on March 24, 1983, 8:55 p.m. from 132/2.

For more information about the launch, click the button.

Launch to space Kosmos-3M | Nadezhda 2
Kosmos-3M | Nadezhda 2

Agency: N/A

Status: Launch Successful

Launch date: March 24, 1983, 8:55 p.m. UTC

Rocket: Kosmos-3M

Launch pad: 132/2

Location: Plesetsk Cosmodrome, Russian Federation

...

Latest news about this satellite

There are no fresh news available about this satellite. Check back as we update our databases every day.


Newsletter sign-up

Weekly statistics, charts and insights to help you stay on top of the space industry.